Wind_Speed
15 16 16 15 16 16 15 15 15 15 15 15 15 15 15 15 15 15 15 15 15 15 15 16 16 16 16 17 17 17 18 19 20 20 19 19 19 20 20 20 21 21 22
16 16 17 17 17 16 15 15 15 16 15 15 15 15 16 16 16 16 16 16 15 15 15 16 15 15 15 16 17 18 19 20 19 19 19 20 20 20 21 21 22 22 22
17 17 18 18 18 17 15 15 16 16 17 17 16 16 16 16 16 16 16 16 15 15 15 15 16 16 17 17 18 18 19 19 20 20 20 21 21 21 21 22 24 24 24
17 18 18 18 18 17 16 17 17 18 18 18 17 17 17 17 16 16 16 16 16 16 16 16 16 17 17 18 19 20 20 20 21 21 21 21 22 22 22 22 23 24 25
17 17 18 18 18 18 18 18 18 19 18 18 17 17 17 18 17 17 17 17 17 16 16 17 18 18 19 19 20 20 21 21 21 21 21 21 21 22 22 22 23 23 25
17 18 18 19 19 19 19 18 19 19 19 18 19 19 19 19 19 18 18 18 18 18 18 18 18 19 20 20 21 22 22 22 22 22 22 22 22 22 23 23 23 24 24
17 18 19 19 20 20 20 19 20 20 20 20 20 20 20 20 21 20 19 19 19 19 19 19 19 20 20 20 21 22 22 22 23 23 23 22 22 22 22 23 24 25 24
18 18 19 19 19 19 20 21 21 21 21 21 20 21 21 22 22 22 22 21 20 20 20 20 20 20 20 20 21 22 22 22 23 24 24 23 23 23 23 24 24 25 25
20 20 20 20 20 20 21 21 22 22 21 21 21 21 22 22 23 22 23 22 22 21 21 21 21 21 21 21 21 21 22 22 22 22 22 22 23 23 23 23 24 24 25
20 21 21 20 21 21 22 22 22 22 21 21 21 22 23 23 23 23 23 23 22 22 22 22 22 22 22 22 21 21 21 21 21 22 22 23 23 22 22 22 22 23 24
21 22 22 22 22 22 23 23 23 23 22 23 23 23 23 24 24 24 24 23 23 23 23 23 23 22 22 21 21 21 22 22 22 22 23 23 23 23 22 22 22 23 23
22 23 23 23 23 23 24 24 24 23 23 24 24 24 24 24 24 25 25 24 23 23 23 23 23 22 22 21 21 21 21 21 22 22 22 23 23 23 23 23 23 24 24
24 23 24 24 24 24 24 24 24 24 24 24 24 25 25 24 24 25 25 24 24 23 23 23 23 23 22 22 21 21 21 22 22 22 22 22 22 23 23 23 24 24 24
24 24 24 25 25 25 26 25 25 25 25 25 25 25 26 25 25 25 24 24 24 24 24 23 23 23 23 23 23 22 22 22 22 22 22 22 22 22 23 23 23 23 24
25 25 25 25 26 26 26 26 26 26 27 27 27 27 27 27 26 26 25 25 24 24 24 24 24 24 23 23 23 24 24 23 22 22 22 23 23 23 23 23 23 23 24
26 26 26 26 27 28 28 28 28 28 28 28 28 28 28 28 27 27 26 25 25 25 24 24 24 24 24 24 24 24 24 23 23 22 23 23 23 23 24 24 24 24 24
27 27 27 28 28 28 28 29 28 28 28 29 29 29 28 28 28 27 27 27 26 25 25 25 25 25 24 25 24 24 24 24 23 23 23 23 24 24 24 24 25 25 24
28 28 29 29 29 29 28 29 29 29 29 29 29 29 28 28 28 27 27 27 26 26 25 25 25 25 24 25 25 24 24 24 24 23 23 23 24 24 25 25 25 25 25
28 29 29 29 29 29 29 29 30 29 29 29 29 28 28 27 27 27 27 27 27 26 26 25 25 24 24 25 26 26 25 25 24 24 24 24 25 25 25 26 25 26 26
29 29 29 29 29 29 29 29 30 30 30 29 28 28 28 27 27 26 27 27 27 27 26 26 26 26 25 25 25 25 24 24 23 23 24 24 24 25 25 25 25 26 25
30 29 29 29 29 30 29 29 29 30 30 30 29 28 27 27 27 26 27 27 27 26 26 26 26 26 25 24 24 23 23 23 23 23 23 23 24 24 24 24 25 25 25
29 29 29 30 30 29 29 29 29 29 28 29 29 27 27 26 26 26 26 26 26 26 26 26 26 25 25 25 24 24 24 23 23 23 23 24 24 24 24 23 23 23 23
28 29 29 30 30 29 29 29 29 29 28 28 27 27 26 26 25 26 26 26 26 26 26 26 26 25 24 24 24 24 24 23 22 22 23 23 24 23 24 23 23 23 22
29 29 29 29 29 29 28 28 27 27 27 26 26 25 26 26 25 25 25 26 26 26 27 27 25 25 25 25 24 24 24 23 23 23 23 23 23 23 23 22 22 22 22
28 28 28 28 28 27 27 26 26 26 24 24 24 24 24 24 24 25 26 26 27 27 27 26 26 25 25 25 24 23 24 23 23 23 22 22 22 22 22 22 21 20 20
26 26 27 27 27 26 26 26 25 24 23 23 23 23 24 24 25 25 26 26 26 26 25 25 25 24 23 24 24 23 23 23 23 23 22 21 21 21 21 21 20 20 20
Wind_Direction
335 334 330 330 328 325 323 322 322 319 318 318 316 313 311 307 305 305 305 305 303 296 288 281 278 277 275 272 271 271 268 265 264 265 264 263 264 261 261 260 258 260 262
333 332 330 327 326 323 321 320 319 317 315 314 313 311 310 309 307 307 308 304 302 298 294 289 281 275 272 270 272 275 272 268 266 265 265 264 262 262 262 262 261 262 264
329 329 328 326 325 321 317 316 315 313 311 309 309 309 308 308 307 308 307 306 303 301 299 293 287 281 275 275 275 277 275 270 268 268 267 266 265 265 264 263 262 262 264
325 327 328 326 325 322 317 314 313 311 310 309 307 306 307 309 308 307 304 304 301 300 299 295 290 285 279 276 276 277 276 273 271 271 269 269 267 265 265 266 265 264 264
321 323 324 323 322 323 318 315 314 312 311 311 308 307 308 310 310 306 304 303 302 300 298 296 292 287 283 278 275 276 276 273 272 272 271 270 269 269 268 269 268 267 266
317 320 321 322 322 323 320 317 315 314 312 311 311 309 309 309 309 307 304 302 301 299 297 297 294 290 287 283 280 277 275 273 272 271 271 270 270 271 269 270 270 268 267
315 316 318 320 322 322 322 322 321 320 317 313 309 307 307 306 304 304 301 300 300 298 297 297 296 293 289 285 282 280 278 275 273 271 270 271 271 272 270 269 268 269 268
314 315 319 320 323 324 322 321 321 319 317 313 309 307 306 305 303 301 300 300 300 298 297 296 296 294 292 288 284 281 279 278 276 274 271 271 271 270 271 270 268 268 268
316 316 318 319 321 321 320 319 318 317 316 314 311 310 309 307 306 305 303 300 299 297 295 295 296 296 293 290 286 283 282 279 276 275 274 274 273 272 272 271 269 269 268
315 316 317 317 317 317 318 317 316 315 313 313 311 309 309 308 308 306 303 299 296 295 295 294 295 295 294 291 287 284 283 281 280 278 277 277 277 275 274 273 273 273 272
312 313 314 315 317 317 317 316 315 314 313 313 311 310 308 307 309 308 304 300 296 294 293 293 293 293 294 292 290 287 285 282 281 280 279 278 278 278 275 274 273 273 273
309 311 312 313 314 315 316 316 316 314 313 313 313 311 309 308 308 308 306 302 299 296 293 290 290 290 291 291 290 289 287 286 285 283 281 278 277 277 276 275 272 271 272
306 308 310 312 312 312 314 314 314 313 312 312 313 311 310 307 308 310 308 305 303 299 296 293 290 289 290 289 288 288 287 286 284 282 280 277 276 276 276 276 274 271 270
303 305 308 309 310 311 311 312 312 311 311 312 312 310 309 309 308 309 309 306 303 300 298 297 292 289 289 288 288 288 288 288 286 282 279 276 275 276 277 276 275 272 271
301 303 305 307 307 308 308 308 309 309 309 310 310 310 308 307 307 305 304 305 303 301 298 296 294 292 291 290 289 288 287 287 286 283 280 278 276 276 278 278 277 276 275
300 303 305 306 307 306 305 305 306 307 307 308 309 309 309 307 306 305 303 302 302 300 298 296 294 292 291 290 290 288 286 286 285 283 280 278 277 277 279 279 277 275 275
299 301 302 303 304 304 305 304 304 305 306 307 308 308 308 308 307 305 303 302 301 300 299 297 294 293 290 289 289 288 286 285 283 283 281 278 277 278 278 279 277 276 275
296 298 300 301 301 301 302 303 303 304 306 307 307 307 306 307 306 306 305 304 302 299 298 298 296 295 290 288 288 287 286 284 283 282 281 280 280 279 279 279 278 277 277
295 296 297 298 298 298 300 302 303 304 305 305 305 305 305 305 305 305 304 303 303 300 297 297 296 295 293 290 289 287 287 286 284 283 282 282 280 279 279 279 278 276 277
294 295 296 297 297 298 300 302 303 304 305 304 304 304 305 305 305 304 305 304 302 300 297 296 296 296 294 292 290 288 288 288 285 283 282 281 281 281 280 278 276 275 274
293 295 296 295 296 298 299 301 304 305 305 304 303 303 304 303 304 305 304 305 305 303 300 299 298 297 295 294 294 291 290 289 287 285 283 282 281 282 281 279 278 277 274
292 294 295 294 295 296 299 301 302 304 303 302 301 300 301 303 303 303 304 305 306 306 304 302 299 297 296 294 293 291 292 290 288 287 286 284 283 281 280 279 278 277 274
292 294 296 296 296 297 299 300 301 302 302 301 302 302 302 302 303 304 304 305 305 305 305 303 301 298 296 294 292 292 293 290 287 287 287 285 283 280 279 279 277 274 272
292 294 296 297 298 298 299 299 300 300 300 299 300 301 301 302 303 305 306 307 307 307 306 305 304 301 299 297 294 293 292 290 289 289 288 286 284 280 279 278 276 272 270
293 293 295 296 297 298 298 298 299 299 297 296 299 301 303 303 304 306 306 307 308 308 307 305 304 303 300 297 295 293 293 292 291 290 288 286 284 282 280 279 278 274 271
291 293 295 295 296 297 297 296 296 296 294 297 299 301 303 304 305 306 308 309 309 310 308 306 305 304 302 298 297 296 295 294 293 291 287 286 286 284 283 281 278 274 271
Height
5866 5864 5861 5859 5856 5853 5850 5848 5845 5843 5841 5838 5836 5834 5832 5830 5828 5826 5824 5822 5820 5818 5816 5815 5814 5814 5813 5813 5813 5812 5812 5812 5812 5811 5811 5812 5812 5812 5811 5811 5811 5812 5812
5864 5861 5859 5856 5853 5849 5847 5844 5842 5840 5837 5835 5833 5830 5828 5826 5823 5822 5820 5818 5816 5814 5812 5811 5810 5809 5808 5808 5807 5807 5806 5806 5806 5806 5805 5805 5805 5805 5805 5805 5805 5805 5805
5861 5858 5855 5852 5849 5846 5843 5841 5838 5836 5833 5831 5829 5827 5824 5822 5819 5817 5815 5814 5812 5810 5808 5806 5805 5804 5804 5803 5802 5801 5800 5800 5800 5800 5799 5799 5799 5799 5798 5798 5798 5798 5798
5857 5855 5852 5849 5846 5843 5840 5837 5835 5832 5829 5827 5825 5823 5820 5818 5815 5813 5811 5809 5807 5805 5803 5802 5800 5799 5798 5797 5796 5796 5794 5794 5793 5793 5793 5792 5792 5792 5791 5791 5791 5791 5791
5854 5851 5848 5845 5842 5839 5836 5833 5831 5828 5826 5823 5821 5818 5816 5814 5811 5809 5807 5805 5803 5801 5799 5797 5795 5793 5792 5791 5790 5789 5788 5787 5787 5786 5786 5786 5785 5785 5785 5784 5784 5784 5784
5850 5847 5844 5841 5838 5835 5832 5829 5826 5824 5822 5819 5816 5814 5812 5809 5807 5804 5802 5800 5798 5796 5794 5791 5789 5787 5786 5785 5784 5783 5782 5781 5780 5779 5779 5778 5778 5778 5777 5777 5777 5777 5777
5846 5843 5840 5837 5834 5831 5828 5824 5822 5820 5817 5814 5812 5809 5807 5805 5802 5799 5797 5795 5792 5791 5788 5786 5784 5781 5779 5778 5777 5776 5775 5774 5773 5773 5772 5771 5771 5770 5770 5769 5769 5769 5769
5842 5839 5836 5833 5830 5827 5823 5820 5818 5815 5813 5810 5807 5805 5802 5799 5796 5794 5791 5789 5787 5785 5782 5780 5778 5775 5773 5771 5770 5769 5768 5767 5766 5765 5765 5764 5763 5763 5762 5762 5761 5761 5761
5837 5834 5831 5828 5825 5822 5819 5816 5813 5810 5807 5805 5802 5800 5797 5794 5791 5788 5786 5783 5781 5778 5776 5774 5772 5769 5767 5765 5764 5762 5761 5760 5759 5758 5757 5756 5756 5755 5755 5754 5754 5753 5753
5832 5830 5826 5823 5820 5817 5814 5811 5808 5805 5802 5799 5797 5794 5791 5788 5785 5782 5779 5777 5774 5772 5770 5768 5765 5763 5761 5759 5757 5756 5755 5753 5752 5751 5750 5749 5748 5748 5747 5747 5746 5746 5745
5828 5825 5822 5818 5815 5812 5809 5806 5803 5800 5797 5794 5791 5788 5785 5782 5779 5776 5773 5770 5767 5765 5763 5760 5758 5756 5754 5752 5750 5749 5748 5746 5745 5744 5743 5742 5741 5740 5739 5739 5738 5738 5738
5822 5819 5816 5813 5810 5807 5804 5801 5797 5794 5791 5788 5785 5782 5779 5776 5773 5769 5766 5763 5760 5758 5756 5754 5751 5749 5748 5746 5744 5742 5741 5739 5738 5737 5736 5734 5733 5732 5731 5731 5731 5730 5729
5816 5813 5811 5808 5805 5802 5799 5795 5792 5789 5786 5782 5779 5776 5773 5769 5766 5763 5760 5757 5754 5751 5749 5747 5745 5743 5741 5740 5738 5735 5734 5732 5730 5729 5728 5727 5726 5725 5724 5723 5723 5722 5721
5810 5807 5804 5802 5799 5796 5793 5789 5786 5783 5780 5776 5773 5770 5767 5763 5760 5756 5753 5750 5747 5745 5742 5740 5738 5736 5734 5732 5730 5728 5726 5725 5723 5722 5720 5719 5718 5717 5716 5716 5715 5714 5713
5803 5800 5798 5795 5792 5789 5786 5783 5779 5776 5773 5770 5766 5763 5760 5756 5753 5750 5746 5743 5740 5738 5735 5733 5730 5728 5727 5724 5722 5720 5719 5717 5715 5714 5712 5712 5711 5710 5708 5707 5706 5705 5704
5796 5793 5791 5788 5785 5782 5779 5776 5772 5769 5766 5762 5759 5756 5752 5749 5745 5742 5739 5736 5733 5730 5727 5725 5723 5720 5718 5716 5714 5713 5711 5709 5707 5706 5705 5704 5702 5701 5700 5698 5697 5696 5696
5788 5786 5783 5781 5778 5775 5771 5768 5765 5762 5758 5755 5751 5748 5744 5740 5737 5734 5731 5728 5725 5722 5719 5717 5714 5712 5710 5708 5706 5705 5703 5701 5699 5697 5696 5695 5694 5693 5692 5690 5689 5688 5687
5781 5778 5776 5773 5770 5767 5764 5761 5757 5754 5751 5747 5744 5740 5737 5733 5729 5726 5723 5719 5716 5714 5711 5709 5706 5704 5702 5700 5698 5696 5694 5692 5690 5689 5688 5686 5685 5684 5683 5682 5680 5679 5678
5773 5770 5768 5765 5762 5759 5756 5753 5750 5746 5743 5740 5736 5732 5729 5725 5722 5718 5715 5712 5709 5706 5703 5701 5698 5696 5694 5691 5689 5687 5685 5683 5681 5680 5679 5677 5676 5675 5673 5672 5671 5670 5669
5764 5762 5759 5757 5754 5751 5748 5745 5742 5738 5735 5731 5728 5725 5721 5718 5715 5711 5707 5704 5701 5698 5695 5693 5690 5687 5685 5683 5680 5678 5676 5674 5673 5671 5669 5668 5667 5665 5664 5662 5661 5660 5659
5757 5754 5752 5749 5746 5744 5740 5737 5734 5730 5727 5723 5720 5717 5714 5711 5708 5704 5701 5697 5693 5690 5687 5684 5681 5679 5676 5674 5672 5670 5668 5666 5665 5663 5661 5659 5658 5656 5654 5653 5652 5650 5649
5749 5746 5744 5741 5738 5735 5732 5729 5726 5722 5719 5716 5713 5709 5706 5703 5700 5697 5693 5690 5686 5683 5679 5676 5673 5671 5668 5666 5664 5662 5660 5658 5656 5654 5653 5651 5649 5647 5645 5644 5642 5641 5640
5740 5737 5735 5732 5729 5726 5723 5720 5717 5714 5711 5708 5704 5701 5699 5696 5693 5690 5686 5683 5679 5675 5672 5668 5666 5663 5660 5658 5655 5653 5652 5649 5647 5645 5644 5642 5640 5638 5637 5635 5634 5632 5631
5731 5729 5726 5724 5721 5718 5715 5712 5709 5706 5703 5700 5697 5694 5691 5688 5685 5682 5679 5675 5672 5668 5665 5661 5658 5656 5653 5650 5647 5645 5643 5641 5639 5637 5635 5634 5632 5630 5628 5627 5625 5624 5623
5723 5721 5718 5715 5713 5710 5707 5704 5701 5698 5695 5693 5690 5687 5684 5681 5679 5676 5672 5669 5665 5661 5658 5654 5651 5648 5646 5643 5640 5638 5635 5633 5631 5629 5627 5625 5624 5622 5620 5619 5617 5616 5616
5714 5712 5710 5707 5704 5702 5699 5696 5694 5691 5688 5686 5683 5680 5677 5675 5672 5669 5665 5662 5658 5655 5651 5648 5645 5642 5639 5636 5633 5631 5628 5626 5623 5621 5619 5617 5616 5614 5612 5611 5610 5609 5608